Glasgow, KY

6:56 AM CDT on June 28, 2017 (GMT -0500)
Glasgow Municipal

Weather History for KGLW - June, 2014

Change the Weather History Date:

Tuesday, June 10, 2014

  Actual Average Record
Temperature  
Mean Temperature 72 °F -  
Max Temperature 81 °F 85 °F 95 °F (1964)
Min Temperature 64 °F 60 °F 43 °F (1977)
Cooling Degree Days 8    
Growing Degree Days 22 (Base 50)    
Moisture  
Dew Point 67 °F    
Average Humidity 89    
Maximum Humidity 100    
Minimum Humidity 58    
Precipitation  
Precipitation 0.39 in - - ()
Sea Level Pressure  
Sea Level Pressure 29.84 in    
Wind  
Wind Speed 6 mph (South)    
Max Wind Speed 10 mph    
Max Gust Speed 17 mph    
Visibility 10 miles    
Events Rain , Thunderstorm    
Averages and records for this station are not official NWS values.
T = Trace of Precipitation, MM = Missing Value Source: NWS Daily Summary

Daily Weather History Graph

Daily Weather History Graph

Search for Another Location

Airport or City:

Trip Planner

Search our weather history database for the weather conditions in past years. The results will help you decide how hot, cold, wet, or windy it might be!

Date:

Astronomy

Jun. 10, 2014 Rise Set
Actual Time 5:23 AM CDT 8:03 PM CDT
Civil Twilight 4:52 AM CDT 8:33 PM CDT
Nautical Twilight 4:14 AM CDT 9:12 PM CDT
Astronomical Twilight 3:31 AM CDT 9:54 PM CDT
Moon 5:30 PM CDT (6/10) 3:25 AM CDT (6/10)
Length of Visible Light 15h 40m
Length of Day
14h 39m
Waxing Gibbous, 92% of the Moon is Illuminated
Jun 10
Waxing Gibbous
Jun 12
Full
Jun 19
Last Quarter
Jun 27
New
Jul 5
First Quarter

Hourly Weather History & Observations

Time (CDT) Temp. Heat Index Dew Point Humidity Pressure Visibility Wind Dir Wind Speed Gust Speed Precip Events Conditions
12:15 AM 67.1 °F - 66.6 °F 98% 29.86 in 10.0 mi ESE 4.6 mph - N/A   Mostly Cloudy
12:35 AM 67.8 °F - 65.8 °F 93% 29.87 in 10.0 mi South 4.6 mph - N/A   Overcast
12:55 AM 68.7 °F - 64.9 °F 88% 29.85 in 7.0 mi South 6.9 mph - 0.01 in Rain Rain
1:15 AM 68.2 °F - 67.8 °F 99% 29.84 in 10.0 mi South 4.6 mph - 0.01 in Rain Rain
1:35 AM 68.0 °F - 68.0 °F 100% 29.84 in 7.0 mi South 3.5 mph - 0.02 in Rain Light Rain
1:55 AM 67.8 °F - 67.8 °F 100% 29.84 in 7.0 mi South 5.8 mph - 0.03 in Rain Rain
2:15 AM 67.6 °F - 67.6 °F 100% 29.84 in 10.0 mi South 8.1 mph - N/A   Overcast
2:35 AM 67.3 °F - 67.3 °F 100% 29.84 in 10.0 mi South 9.2 mph 16.1 mph N/A   Overcast
2:55 AM 67.1 °F - 67.1 °F 100% 29.84 in 10.0 mi South 6.9 mph - N/A   Overcast
3:15 AM 66.6 °F - 66.6 °F 100% 29.84 in 10.0 mi South 5.8 mph - N/A   Overcast
3:35 AM 66.2 °F - 66.2 °F 100% 29.84 in 10.0 mi SSW 4.6 mph - N/A   Scattered Clouds
3:55 AM 66.2 °F - 66.2 °F 100% 29.84 in 10.0 mi South 8.1 mph - N/A   Scattered Clouds
4:15 AM 65.8 °F - 65.8 °F 100% 29.85 in 10.0 mi South 6.9 mph - N/A   Mostly Cloudy
4:35 AM 65.7 °F - 65.7 °F 100% 29.84 in 10.0 mi South 5.8 mph - N/A   Scattered Clouds
4:55 AM 65.3 °F - 65.3 °F 100% 29.85 in 10.0 mi South 5.8 mph - N/A   Clear
5:15 AM 65.1 °F - 65.1 °F 100% 29.85 in 10.0 mi South 4.6 mph - N/A   Clear
5:35 AM 64.8 °F - 64.8 °F 100% 29.87 in 10.0 mi South 4.6 mph - N/A   Clear
5:55 AM 64.9 °F - 64.9 °F 100% 29.87 in 10.0 mi SSW 4.6 mph - N/A   Clear
6:15 AM 65.5 °F - 65.1 °F 99% 29.87 in 10.0 mi SW 3.5 mph - N/A   Scattered Clouds
6:35 AM 66.2 °F - 65.1 °F 96% 29.87 in 10.0 mi SSW 4.6 mph - N/A   Overcast
6:55 AM 66.9 °F - 65.3 °F 95% 29.88 in 10.0 mi SW 5.8 mph - N/A   Overcast
7:15 AM 67.8 °F - 64.8 °F 90% 29.88 in 7.0 mi SSW 6.9 mph - N/A   Mostly Cloudy
7:35 AM 69.1 °F - 64.9 °F 87% 29.88 in 10.0 mi SW 6.9 mph - N/A   Mostly Cloudy
7:55 AM 69.4 °F - 64.4 °F 84% 29.89 in 10.0 mi SSW 10.4 mph - N/A   Mostly Cloudy
8:15 AM 70.3 °F - 64.6 °F 82% 29.88 in 10.0 mi SSW 6.9 mph - N/A   Mostly Cloudy
8:35 AM 70.9 °F - 64.4 °F 80% 29.89 in 10.0 mi SSW 9.2 mph - N/A   Scattered Clouds
8:55 AM 72.1 °F - 64.2 °F 76% 29.89 in 10.0 mi SSW 8.1 mph - N/A   Mostly Cloudy
9:15 AM 73.4 °F - 64.8 °F 74% 29.90 in 10.0 mi SSW 5.8 mph - N/A   Mostly Cloudy
9:35 AM 74.1 °F - 65.3 °F 74% 29.89 in 10.0 mi SSW 9.2 mph - N/A   Mostly Cloudy
9:55 AM 74.5 °F - 64.8 °F 72% 29.89 in 10.0 mi SSW 10.4 mph - N/A   Scattered Clouds
10:15 AM 75.7 °F - 64.9 °F 69% 29.88 in 10.0 mi South 9.2 mph - N/A   Clear
10:35 AM 76.8 °F - 65.3 °F 67% 29.88 in 10.0 mi SSW 8.1 mph - N/A   Scattered Clouds
10:55 AM 78.6 °F - 66.0 °F 65% 29.88 in 10.0 mi South 8.1 mph - N/A   Mostly Cloudy
11:15 AM 79.5 °F - 65.7 °F 62% 29.88 in 10.0 mi South 6.9 mph - N/A   Mostly Cloudy
11:35 AM 80.2 °F 82.2 °F 65.7 °F 61% 29.87 in 10.0 mi South 6.9 mph - N/A   Mostly Cloudy
11:55 AM 78.3 °F - 64.8 °F 63% 29.87 in 10.0 mi South 5.8 mph - N/A   Mostly Cloudy
12:15 PM 79.0 °F - 64.9 °F 62% 29.86 in 10.0 mi South 9.2 mph - N/A   Mostly Cloudy
12:35 PM 81.3 °F 83.2 °F 65.1 °F 58% 29.85 in 10.0 mi SSW 9.2 mph - N/A   Scattered Clouds
12:55 PM 80.4 °F 82.2 °F 64.9 °F 59% 29.86 in 10.0 mi South 10.4 mph 16.1 mph N/A   Light Drizzle
1:15 PM 81.0 °F 82.9 °F 65.5 °F 59% 29.85 in 10.0 mi SSW 6.9 mph - N/A   Scattered Clouds
1:35 PM 80.2 °F 82.1 °F 65.3 °F 60% 29.85 in 10.0 mi SSW 5.8 mph - N/A Thunderstorm Scattered Clouds
2:15 PM 74.8 °F - 66.4 °F 75% 29.85 in 5.0 mi West 8.1 mph 17.3 mph 0.07 in Rain Rain
2:55 PM 69.1 °F - 69.1 °F 100% 29.86 in 4.0 mi SW 3.5 mph - 0.21 in Rain , Thunderstorm Heavy Thunderstorms and Rain
3:35 PM 68.9 °F - 68.9 °F 100% 29.81 in 5.0 mi SE 3.5 mph - 0.12 in Rain Rain
3:55 PM 69.1 °F - 69.1 °F 100% 29.81 in 10.0 mi ESE 8.1 mph - 0.14 in Rain Light Rain
4:15 PM 69.8 °F - 69.6 °F 99% 29.81 in 10.0 mi SE 5.8 mph - N/A   Scattered Clouds
4:55 PM 70.9 °F - 70.7 °F 99% 29.83 in 10.0 mi South 6.9 mph - N/A   Scattered Clouds
5:15 PM 70.5 °F - 70.2 °F 99% 29.83 in 10.0 mi SSE 6.9 mph - N/A   Mostly Cloudy
5:35 PM 70.3 °F - 68.0 °F 92% 29.83 in 10.0 mi SSE 8.1 mph - N/A   Overcast
5:55 PM 70.0 °F - 68.4 °F 95% 29.83 in 10.0 mi South 8.1 mph - N/A   Mostly Cloudy
6:15 PM 69.6 °F - 68.2 °F 95% 29.83 in 5.0 mi SSE 9.2 mph - N/A   Overcast
6:35 PM 70.0 °F - 67.5 °F 92% 29.83 in 10.0 mi SSE 8.1 mph - N/A   Mostly Cloudy
6:55 PM 70.5 °F - 67.3 °F 89% 29.82 in 10.0 mi South 5.8 mph - N/A   Mostly Cloudy
7:15 PM 70.7 °F - 67.8 °F 91% 29.80 in 10.0 mi SE 4.6 mph - N/A   Mostly Cloudy
7:35 PM 69.8 °F - 69.4 °F 99% 29.80 in 10.0 mi South 5.8 mph - N/A   Scattered Clouds
7:55 PM 69.3 °F - 69.3 °F 100% 29.79 in 10.0 mi SSE 5.8 mph - N/A   Mostly Cloudy
8:15 PM 69.1 °F - 69.1 °F 100% 29.79 in 10.0 mi SSE 6.9 mph - N/A   Overcast
8:35 PM 68.9 °F - 68.9 °F 100% 29.79 in 10.0 mi South 5.8 mph - N/A   Scattered Clouds
8:55 PM 68.7 °F - 68.7 °F 100% 29.79 in 10.0 mi SSE 5.8 mph - N/A   Scattered Clouds
9:15 PM 68.7 °F - 68.5 °F 99% 29.80 in 10.0 mi SSE 5.8 mph - N/A   Mostly Cloudy
9:35 PM 68.9 °F - 68.0 °F 97% 29.80 in 10.0 mi SSE 5.8 mph - N/A   Overcast
9:55 PM 68.9 °F - 67.6 °F 96% 29.80 in 10.0 mi SSE 6.9 mph - N/A   Scattered Clouds
10:15 PM 68.4 °F - 67.8 °F 98% 29.80 in 10.0 mi SSE 5.8 mph - N/A   Scattered Clouds
10:35 PM 68.2 °F - 68.0 °F 99% 29.81 in 10.0 mi South 6.9 mph - N/A   Mostly Cloudy
10:55 PM 68.0 °F - 68.0 °F 100% 29.81 in 10.0 mi South 6.9 mph - N/A   Mostly Cloudy
11:15 PM 68.2 °F - 67.3 °F 97% 29.83 in 10.0 mi South 8.1 mph - N/A   Mostly Cloudy
11:35 PM 68.0 °F - 67.1 °F 97% 29.81 in 10.0 mi South 6.9 mph - N/A   Mostly Cloudy
11:55 PM 67.6 °F - 67.5 °F 99% 29.81 in 10.0 mi South 4.6 mph - N/A   Scattered Clouds